Regional Weather Roundup
Issued by NWS

Home | Current Version | Previous Version | Text Only | Print | Product List | Glossary On
Versions: 1 2 3 4 5 6 7 8 9 10 11 12 13 14 15 16 17 18 19 20 21 22 23 24 25 26 27 28 29 30 31 32 33 34 35 36 37 38 39 40 41 42 43 44 45 46 47 48 49 50
000
ASUS43 KDTX 311301
RWRMI
MICHIGAN HOURLY REGIONAL WEATHER ROUNDUP
NATIONAL WEATHER SERVICE DETROIT/PONTIAC MI
800 AM EST SAT JAN 31 2015

NOTE: "FAIR" INDICATES FEW OR NO CLOUDS BELOW 12,000 FEET WITH NO
SIGNIFICANT WEATHER AND/OR OBSTRUCTION TO VISIBILITY.

MIZ047>049-052>055-059>063-066>070-074>076-081>083-311400-
SOUTHEAST LOWER MICHIGAN

CITY           SKY/WX    TMP DP  RH WIND       PRES   REMARKS
ADRIAN         MOCLDY    18  14  84 W8        30.30S WCI   8
ALMA           CLOUDY    20  17  85 S7        30.21F WCI  12
ANN ARBOR      CLOUDY    13  10  88 CALM      30.28S
BAD AXE        CLOUDY    13  10  85 S3        30.23S
CARO           CLOUDY    17  11  78 S5        30.23S WCI  10
DETROIT CITY   PTCLDY    19  11  70 CALM      30.30F
DETROIT        MOCLDY    15  10  80 S5        30.30F WCI   8
FLINT          CLOUDY    20  12  71 S8        30.24F WCI  10
GROSSE ILE     MOCLDY    19  16  86 S8        30.29F WCI   9
HILLSDALE      PTCLDY    17  14  88 CALM      30.25R
HOWELL         CLOUDY    16  12  84 S5        30.24S WCI   9

CITY           SKY/WX    TMP DP  RH WIND       PRES   REMARKS
JACKSON        PTCLDY    17  13  84 SW6       30.25S WCI   9
LAMBERTVILLE   CLOUDY    21  14  73 SW6       30.31R WCI  14
LANSING        CLOUDY    20  14  77 S7        30.24S WCI  11
LAPEER         CLOUDY    17  12  79 SW7       30.23F WCI   8
MASON          CLOUDY    18  13  82 CALM      30.24F
MONROE         MOCLDY    18  14  86 S3        30.28F
MT. CLEMENS    CLOUDY    17  11  77 SW7       30.27R WCI   8
PONTIAC        CLOUDY    15   9  76 SE3       30.25S
PORT HOPE        N/A     13   7  77 SW5       30.23F WCI   5
PORT HURON     CLOUDY    10   7  85 S5        30.28S WCI   2
TRI CITIES     CLOUDY    20  12  71 S8        30.22F WCI  10
TROY           MOCLDY    18  10  70 CALM      30.31R
SAGINAW HB     CLOUDY    21  14  73 S10       30.23S WCI  10
$$
MIZ043>046-050>051-056>058-064>065-071>073-077>080-311400-
SOUTHWEST LOWER MICHIGAN

CITY           SKY/WX    TMP DP  RH WIND       PRES   REMARKS
BATTLE CREEK   CLEAR     16  12  84 S5        30.25S WCI   9
BENTON HARBOR  CLEAR     19  16  88 S6        30.26S WCI  11
BIG RAPIDS     CLOUDY    19  16  90 SW3       30.17S
COLDWATER      PTCLDY    19  14  82 SW6       30.26S WCI  10
FREMONT        FAIR      14  13  95 CALM      30.19F
HOLLAND        PTCLDY    23  18  81 S8        30.23F WCI  14
GRAND RAPIDS   MOCLDY    20  15  81 S12       30.22F WCI   8
IONIA          FAIR      21  17  84 SW7       30.21F WCI  12
KALAMAZOO      CLEAR     16  12  84 S5        30.26S WCI   9
LUDINGTON      CLOUDY    31  21  66 W9G16     30.17S WCI  23
MARSHALL       CLEAR     16  12  86 SW3       30.25S
MOUNT PLEASANT CLOUDY    19  14  81 S3        30.19F
MUSKEGON       PTCLDY    29  20  69 SW9       30.21F WCI  20
SOUTH HAVEN    MOCLDY    21  17  85 S6        30.24F WCI  14
$$
MIZ016>042-311400-
NORTHERN LOWER MICHIGAN

CITY           SKY/WX    TMP DP  RH WIND       PRES   REMARKS
ALPENA         CLOUDY    13  10  88 S3        30.18F
BEAVER ISLAND  CLOUDY    25  18  74 W7        30.10F WCI  17
CADILLAC       MOCLDY    15  12  86 S5        30.11S WCI   8
CHARLEVOIX     CLOUDY    19  16  86 S7        30.15F WCI  10
FRANKFORT      CLOUDY    28  21  74 W6        30.14S WCI  22
GAYLORD        CLOUDY    15  11  83 S7        30.10S WCI   5
GRAYLING       MOCLDY    14  10  82 CALM      30.14S
HARBOR SPRINGS CLOUDY    18  14  84 CALM      30.13S
HOUGHTON LAKE  MOCLDY    14   9  80 S6        30.14F WCI   5
MANISTEE       CLOUDY    18  12  79 CALM      30.17R
OSCODA         CLOUDY    13  10  87 SW5       30.20F WCI   5
PELLSTON       CLOUDY    16  13  88 SE6       30.13S WCI   7
ROGERS CITY    CLOUDY    14  12  92 S9        30.16F WCI   2
TRAVERSE CITY  CLOUDY    21  14  74 S6        30.14S WCI  13
$$
MIZ007>008-015-311400-
EASTERN UPPER MICHIGAN

CITY           SKY/WX    TMP DP  RH WIND       PRES   REMARKS
KINROSS        CLOUDY    16  16 100 S5        30.11R WCI   9
MACKINAC ISLAN CLOUDY    15  13  90 S7        30.11F WCI   6
NEWBERRY       CLOUDY    16  13  90 SW8       30.07F WCI   5
S. S. MARIE    CLOUDY    11   8  88 CALM      30.12S
$$
MIZ004>006-011>014-085-311400-
CENTRAL UPPER MICHIGAN

CITY           SKY/WX    TMP DP  RH WIND       PRES   REMARKS
MANISTIQUE     CLOUDY    20  16  84 W3        30.10S
ESCANABA       CLOUDY    19   9  63 W9        30.12S WCI   9
MENOMINEE      CLOUDY    21  10  63 W3        30.14R
SAWYER-GWINN   CLOUDY    14  10  85 SW3       30.07R
$$
MIZ001>003-009>011-084-311400-
WESTERN UPPER MICHIGAN

CITY           SKY/WX    TMP DP  RH WIND       PRES   REMARKS
IRON MOUNTAIN  CLOUDY    20  13  74 W7        30.09R WCI  11
HOUGHTON       CLOUDY    22  16  78 NW12      30.06R WCI  10
COPPER HARBOR    N/A     24  17  74 N21       30.07R WCI   9
IRONWOOD       CLOUDY    21  16  79 W9        30.09R WCI  11
$$

ABBREVIATIONS USED IN REMARKS
   TC - TEMPERATURE IN CELSIUS
  WCI - WIND CHILL INDEX
   HX - HEAT INDEX
  VSB - VISIBILITY




USA.gov is the U.S. government's official web portal to all federal, state and local government web resources and services.